Le nostre stazioni meteo in Italia

Pubblicità
Il mio iltempo24.it
Milano/Linate, Italia (16080): Temperatura & dewpoint: 04.04.2020 03:00:00 - 10.04.2020 03:00:00 (CEST)Milano/Linate, Italia (16080): velocità del vento: 04.04.2020 03:00:00 - 10.04.2020 03:00:00 (CEST)Milano/Linate, Italia (16080): direzione del vento: 04.04.2020 03:00:00 - 10.04.2020 03:00:00 (CEST)Milano/Linate, Italia (16080): reduced air pressure: 04.04.2020 03:00:00 - 10.04.2020 03:00:00 (CEST)Milano/Linate, Italia (16080): visibility: 04.04.2020 03:00:00 - 10.04.2020 03:00:00 (CEST)Milano/Linate, Italia (16080): precipitazioni: 04.04.2020 03:00:00 - 10.04.2020 03:00:00 (CEST)
Data & Tempo tt [°C] td [°C] ff [km/h] ff [kn] dd ppp [hPa] vv [km] rr [mm]
10.04.2020 03:00:00 9,0 4,0 4 2 N - 10 -
10.04.2020 02:00:00 9,1 2,3 4 2 N 1022,4 10 -
10.04.2020 01:00:00 11,0 4,0 2 1 NNE - 10 -
10.04.2020 00:00:00 12,0 3,0 4 2 NNE - 10 -
09.04.2020 23:00:00 12,6 2,0 2 1 N 1022,1 10 0,0
09.04.2020 22:00:00 15,0 4,0 2 1 - - 10 -
09.04.2020 21:00:00 18,0 0,0 4 2 S - 10 -
09.04.2020 20:00:00 20,8 -1,2 5 3 S 1020,6 10 -
09.04.2020 19:00:00 22,0 0,0 8 4 S - 10 -
09.04.2020 18:00:00 24,0 -1,0 8 4 O - 10 -
09.04.2020 17:00:00 23,6 -0,8 8 4 SO 1020,6 10 0,0
09.04.2020 16:00:00 23,0 -1,0 5 3 - - 10 -
09.04.2020 15:00:00 23,0 0,0 5 3 - - 10 -
09.04.2020 14:00:00 21,7 -0,7 9 5 SSO 1022,5 10 -
09.04.2020 13:00:00 21,0 1,0 8 4 - - 10 -
09.04.2020 12:00:00 20,0 3,0 5 3 OSO - 10 -
09.04.2020 11:00:00 17,8 2,0 4 2 - 1024,1 10 0,0
09.04.2020 10:00:00 16,0 3,0 2 1 - - 10 -
09.04.2020 09:00:00 12,0 3,0 5 3 NNE - 10 -
09.04.2020 08:00:00 8,1 3,2 2 1 O 1023,8 10 -
09.04.2020 07:00:00 7,0 3,0 2 1 - - 10 -
09.04.2020 06:00:00 7,0 2,0 2 1 N - 10 -
09.04.2020 05:00:00 7,6 0,9 4 2 N 1023,4 10 0,0
09.04.2020 04:00:00 8,0 2,0 4 2 N - 10 -
09.04.2020 03:00:00 10,0 1,0 2 1 - - 10 -
09.04.2020 02:00:00 10,6 0,9 5 3 N 1024,3 10 -
09.04.2020 01:00:00 11,0 2,0 2 1 - - 10 -
09.04.2020 00:00:00 11,0 1,0 4 2 NNE - 10 -
08.04.2020 23:00:00 13,2 -0,1 4 2 NNO 1024,4 10 0,0
08.04.2020 22:00:00 15,0 0,0 5 3 SSE - 10 -
08.04.2020 21:00:00 16,0 -1,0 8 4 SSE - 10 -
08.04.2020 20:00:00 19,4 -2,7 9 5 SE 1023,6 10 -
08.04.2020 19:00:00 20,0 -2,0 8 4 S - 10 -
08.04.2020 18:00:00 21,0 -3,0 9 5 SSE - 10 -
08.04.2020 17:00:00 22,0 -3,1 8 4 SSE 1024,4 10 0,0
08.04.2020 16:00:00 22,0 -1,0 5 3 - - 10 -
08.04.2020 15:00:00 21,0 -1,0 4 2 - - 10 -
08.04.2020 14:00:00 20,9 -1,3 8 4 SO 1026,5 10 -
08.04.2020 13:00:00 19,0 -1,0 5 3 S - 10 -
08.04.2020 12:00:00 19,0 3,0 9 5 SSO - 10 -
08.04.2020 11:00:00 17,2 2,4 8 4 SSE 1028,6 10 0,0
08.04.2020 10:00:00 16,0 5,0 4 2 - - 10 -
08.04.2020 09:00:00 12,0 4,0 4 2 N - 10 -
08.04.2020 08:00:00 9,6 2,7 4 2 - 1028,5 10 -
08.04.2020 07:00:00 9,0 2,0 8 4 N - 10 -
08.04.2020 06:00:00 6,0 2,0 5 3 N - 10 -
08.04.2020 05:00:00 7,2 2,1 2 1 NNO 1028,6 10 0,0
08.04.2020 04:00:00 8,0 1,0 5 3 N - 10 -
08.04.2020 03:00:00 8,0 3,0 0 0 N - 10 -
08.04.2020 02:00:00 9,8 2,3 4 2 N 1029,6 10 -
08.04.2020 01:00:00 13,0 1,0 5 3 NNE - 10 -
08.04.2020 00:00:00 14,0 0,0 9 5 ENE - 10 -
07.04.2020 23:00:00 15,7 0,4 9 5 E 1028,8 10 0,0
07.04.2020 22:00:00 15,0 1,0 4 2 NE - 10 -
07.04.2020 21:00:00 19,0 0,0 8 4 ESE - 10 -
07.04.2020 20:00:00 19,4 -0,2 9 5 ESE 1027,3 10 -
07.04.2020 19:00:00 21,0 2,0 11 6 SE - 10 -
07.04.2020 18:00:00 22,0 0,0 15 8 ESE - 10 -
07.04.2020 17:00:00 21,8 2,0 11 6 E 1027,3 10 0,0
07.04.2020 16:00:00 22,0 2,0 5 3 SSO - 10 -
07.04.2020 15:00:00 21,0 2,0 5 3 - - 10 -
07.04.2020 14:00:00 20,0 2,0 5 3 SSO 1029,0 10 -
07.04.2020 13:00:00 19,0 3,0 9 5 S - 10 -
07.04.2020 12:00:00 18,0 1,0 9 5 S - 10 -
07.04.2020 11:00:00 17,1 3,1 8 4 S 1029,9 10 0,0
07.04.2020 10:00:00 15,0 5,0 5 3 E - 10 -
07.04.2020 09:00:00 11,0 6,0 9 5 N - 10 -
07.04.2020 08:00:00 6,8 3,6 4 2 NNE 1029,1 10 -
07.04.2020 07:00:00 7,0 3,0 4 2 - - 10 -
07.04.2020 06:00:00 6,0 4,0 2 1 NNO - 10 -
07.04.2020 05:00:00 6,9 3,9 2 1 - 1028,3 10 0,0
07.04.2020 04:00:00 7,0 4,0 2 1 ONO - 10 -
07.04.2020 03:00:00 9,0 3,0 2 1 - - 10 -
07.04.2020 02:00:00 10,0 4,1 2 1 - 1028,5 10 -
07.04.2020 01:00:00 12,0 4,0 4 2 - - 10 -
07.04.2020 00:00:00 11,0 3,0 8 4 NNO - 10 -
06.04.2020 23:00:00 10,8 3,1 4 2 N 1027,7 10 0,0
06.04.2020 22:00:00 13,0 4,0 0 0 N - 10 -
06.04.2020 21:00:00 15,0 2,0 4 2 - - 10 -
06.04.2020 20:00:00 17,9 1,6 4 2 S 1026,1 10 -
06.04.2020 19:00:00 20,0 2,0 11 6 SSE - 10 -
06.04.2020 18:00:00 20,0 2,0 5 3 S - 10 -
06.04.2020 17:00:00 20,4 0,7 8 4 S 1026,0 10 0,0
06.04.2020 16:00:00 20,0 2,0 5 3 - - 10 -
06.04.2020 15:00:00 20,0 1,0 8 4 - - 10 -
06.04.2020 14:00:00 19,4 2,0 8 4 - 1027,2 10 -
06.04.2020 13:00:00 19,0 2,0 9 5 - - 10 -
06.04.2020 12:00:00 18,0 2,0 5 3 - - 10 -
06.04.2020 11:00:00 16,4 3,5 8 4 S 1027,9 10 0,0
06.04.2020 10:00:00 15,0 4,0 4 2 - - 10 -
06.04.2020 09:00:00 13,0 4,0 2 1 - - 10 -
06.04.2020 08:00:00 8,2 2,6 8 4 N 1026,8 10 -
06.04.2020 07:00:00 5,0 1,0 2 1 - - 10 -
06.04.2020 06:00:00 6,0 3,0 4 2 - - 10 -
06.04.2020 05:00:00 8,4 3,1 5 3 NNE 1025,7 10 0,0
06.04.2020 04:00:00 7,0 1,0 4 2 - - 10 -
06.04.2020 03:00:00 8,0 4,0 5 3 ENE - 10 -
06.04.2020 02:00:00 8,6 3,6 4 2 N 1025,9 10 -
06.04.2020 01:00:00 8,0 3,0 4 2 - - 10 -
06.04.2020 00:00:00 9,0 3,0 2 1 NNE - 10 -
05.04.2020 23:00:00 10,8 2,5 4 2 - 1025,0 10 0,0
05.04.2020 22:00:00 12,0 4,0 4 2 NNE - 10 -
05.04.2020 21:00:00 14,0 2,0 2 1 O - 10 -
05.04.2020 20:00:00 15,7 2,7 5 3 S 1023,2 10 -
05.04.2020 19:00:00 18,0 2,0 11 6 SE - 10 -
05.04.2020 18:00:00 18,0 1,0 9 5 E - 10 -
05.04.2020 17:00:00 18,7 1,4 8 4 - 1023,1 10 0,0
05.04.2020 16:00:00 18,0 2,0 8 4 - - 10 -
05.04.2020 15:00:00 18,0 2,0 8 4 - - 10 -
05.04.2020 14:00:00 17,7 0,7 5 3 - 1025,2 10 -
05.04.2020 13:00:00 17,0 1,0 13 7 ESE - 10 -
05.04.2020 12:00:00 15,0 0,0 16 9 SE - 10 -
05.04.2020 11:00:00 14,6 2,0 9 5 SE 1026,5 10 0,0
05.04.2020 10:00:00 13,0 1,0 11 6 SE - 10 -
05.04.2020 09:00:00 12,0 3,0 5 3 ESE - 10 -
05.04.2020 08:00:00 7,6 3,1 2 1 O 1025,5 10 -
05.04.2020 07:00:00 9,0 2,0 2 1 - - 10 -
05.04.2020 06:00:00 9,0 2,0 4 2 NE - 10 -
05.04.2020 05:00:00 9,8 1,8 8 4 E 1024,4 10 0,0
05.04.2020 04:00:00 8,0 2,0 4 2 ENE - 10 -
05.04.2020 03:00:00 8,0 2,0 4 2 - - 10 -
05.04.2020 02:00:00 8,1 2,1 4 2 - 1024,4 10 -
05.04.2020 01:00:00 9,0 1,0 5 3 ENE - 10 -
05.04.2020 00:00:00 11,0 1,0 4 2 NE - 10 -
04.04.2020 23:00:00 9,7 2,3 2 1 - 1022,8 10 0,0
04.04.2020 22:00:00 13,0 1,0 5 3 E - 10 -
04.04.2020 21:00:00 16,0 0,0 8 4 ESE - 10 -
04.04.2020 20:00:00 16,6 -0,2 9 5 ESE 1020,4 10 -
04.04.2020 19:00:00 18,0 1,0 8 4 SE - 10 -
04.04.2020 18:00:00 18,0 0,0 5 3 - - 10 -
04.04.2020 17:00:00 18,4 0,2 9 5 ENE 1020,0 10 0,0
04.04.2020 16:00:00 18,0 0,0 5 3 - - 10 -
04.04.2020 15:00:00 18,0 3,0 8 4 S - 10 -
04.04.2020 14:00:00 17,3 1,4 8 4 - 1021,6 10 -
04.04.2020 13:00:00 16,0 3,0 9 5 SSE - 10 -
04.04.2020 12:00:00 15,0 2,0 5 3 ESE - 10 -
04.04.2020 11:00:00 13,0 4,0 8 4 SSE 1022,5 10 0,0
04.04.2020 10:00:00 11,0 4,0 4 2 - - 10 -
04.04.2020 09:00:00 8,0 3,0 5 3 O - 10 -
04.04.2020 08:00:00 4,5 2,6 0 0 N 1020,4 7 -
04.04.2020 07:00:00 4,0 2,0 2 1 NNE - 7 -
04.04.2020 06:00:00 4,0 2,0 2 1 - - 10 -
04.04.2020 05:00:00 4,3 1,5 4 2 N 1019,0 9 0,0
04.04.2020 04:00:00 6,0 2,0 2 1 - - 10 -
04.04.2020 03:00:00 6,0 1,0 4 2 - - 10 -

tt = Temperatura
td = dewpoint
ff = velocità del vento
dd = direzione del vento
ppp = reduced air pressure
vv = visibility
rr = precipitazioni

Stazioni seguenti

WeatherPro
AMSI
MeteoEarth